Location: Kitchener
(43.4500°N, 80.5000°W)
Time: 17:23:37
(UTC-04:00)

Cosmos 1939 Rocket - Visible Passes

Search period start: 24 April 2014 00:00
Search period end: 04 May 2014 00:00
Orbit: 545 x 592 km, 97.7° (Epoch: 23 April)

Date Brightness Start Highest point End Pass type
(mag) Time Alt. Az. Time Alt. Az. Time Alt. Az.
24 Apr 3.2 22:12:51 30° S 22:14:44 66° W 22:18:53 10° NNW visible
25 Apr 3.2 22:14:19 29° S 22:16:16 64° W 22:20:25 10° NNW visible
26 Apr 3.3 22:15:46 28° S 22:17:48 61° W 22:21:57 10° NNW visible
27 Apr 3.4 22:17:13 27° S 22:19:20 59° W 22:23:28 10° NNW visible
28 Apr 3.5 22:18:40 26° S 22:20:51 56° W 22:24:58 10° NNW visible
29 Apr 3.5 22:20:07 24° SSW 22:22:22 54° W 22:26:29 10° NNW visible
30 Apr 3.6 22:21:34 23° SSW 22:23:53 52° W 22:27:58 10° NNW visible
01 May 3.7 22:23:00 22° SSW 22:25:23 50° W 22:29:28 10° NNW visible
02 May 3.7 22:24:26 22° SSW 22:26:53 48° W 22:30:57 10° NNW visible
03 May 3.8 22:25:52 21° SSW 22:28:23 46° W 22:32:26 10° NNW visible
